�N����,����,�~����,�C��,���x,�C��,����,���ϕ���,�ő�u�ԕ���,�ő厞����,���˗�,�I�_���x,�n�����x,�ő啗���N��,DTYPE
"17/08/05","00:10",0.0,27.7,77.5,1001.2,65.9,0.7,1.7,87.5,0.00,23.4,26.2,"00:00:08",1
"17/08/05","00:20",0.0,27.6,77.5,1001.0,57.8,0.6,2.0,33.4,0.00,23.3,26.2,"00:10:56",1
"17/08/05","00:30",0.0,27.6,77.6,1001.0,67.7,0.6,2.1,87.4,0.00,23.4,26.2,"00:21:04",1
"17/08/05","00:40",0.0,27.6,77.5,1001.2,72.6,0.5,1.6,29.0,0.00,23.3,26.3,"00:30:08",1
"17/08/05","00:50",0.0,27.6,77.6,1000.5,89.9,0.6,2.4,76.4,0.00,23.4,26.1,"00:47:20",1
"17/08/05","01:00",0.0,27.5,78.0,1001.0,151.3,0.5,1.6,156.8,0.00,23.4,26.1,"00:50:16",1
"17/08/05","01:10",0.0,27.3,78.6,1000.8,347.9,0.2,1.0,177.7,0.00,23.3,26.1,"01:09:28",1
"17/08/05","01:20",0.0,27.2,79.2,1001.0,92.5,0.5,1.2,76.4,0.00,23.3,26.1,"01:11:20",1
"17/08/05","01:30",0.0,27.2,79.8,1000.8,138.2,0.8,1.8,155.2,0.00,23.4,26.2,"01:29:20",1
"17/08/05","01:40",0.0,27.3,79.7,1000.8,171.4,0.8,1.9,154.5,0.00,23.5,25.9,"01:34:16",1
"17/08/05","01:50",0.0,27.3,79.6,1000.5,162.1,0.3,1.2,112.0,0.00,23.5,25.9,"01:47:44",1
"17/08/05","02:00",0.0,27.3,79.7,1000.5,185.4,0.5,2.2,140.9,0.00,23.5,26.0,"01:56:00",1
"17/08/05","02:10",0.0,27.1,80.2,1000.3,69.9,0.3,1.1,49.9,0.00,23.4,26.2,"02:03:28",1
"17/08/05","02:20",0.0,26.9,81.1,1000.5,1.3,0.6,1.4,100.9,0.00,23.4,26.0,"02:12:00",1
"17/08/05","02:30",0.0,26.9,81.7,1000.5,53.0,0.7,1.8,25.5,0.00,23.5,25.9,"02:25:12",1
"17/08/05","02:40",0.0,27.1,81.5,1000.3,66.3,0.5,1.3,147.0,0.00,23.7,25.8,"02:34:48",1
"17/08/05","02:50",0.0,27.2,81.2,1000.5,100.2,0.5,1.2,61.9,0.00,23.7,25.7,"02:45:44",1
"17/08/05","03:00",0.0,27.2,81.0,1000.8,107.6,0.5,2.4,166.2,0.00,23.7,25.9,"02:51:04",1
"17/08/05","03:10",0.0,27.1,81.1,1001.0,57.9,0.3,0.9,356.0,0.00,23.6,25.8,"03:01:12",1
"17/08/05","03:20",0.0,27.1,81.0,1000.5,18.6,0.6,1.9,120.7,0.00,23.6,25.7,"03:18:08",1
"17/08/05","03:30",0.0,27.2,80.5,1000.3,94.1,0.6,1.4,74.2,0.00,23.6,25.7,"03:23:12",1
"17/08/05","03:40",0.0,27.1,80.6,1000.3,359.5,0.6,1.4,338.1,0.00,23.5,25.8,"03:34:00",1
"17/08/05","03:50",0.0,26.9,81.1,1000.5,4.7,0.2,1.2,51.8,0.00,23.4,25.7,"03:42:56",1
"17/08/05","04:00",0.0,26.8,81.8,1000.3,95.1,0.3,1.7,83.2,0.00,23.5,25.7,"03:50:02",1
"17/08/05","04:10",0.0,26.7,82.1,1000.8,159.9,0.6,1.4,147.8,0.00,23.4,25.8,"04:08:16",1
"17/08/05","04:20",0.0,26.6,82.6,1000.8,184.1,0.3,1.2,345.4,0.00,23.4,25.9,"04:10:02",1
"17/08/05","04:30",0.0,26.4,83.6,1000.3,342.9,1.0,2.0,346.4,0.00,23.4,25.8,"04:27:20",1
"17/08/05","04:40",0.0,26.0,84.7,1000.8,4.1,0.7,1.6,345.7,0.00,23.3,25.7,"04:30:16",1
"17/08/05","04:50",0.0,25.6,86.0,1000.8,334.6,0.7,1.2,338.9,0.00,23.1,25.5,"04:41:04",1
"17/08/05","05:00",0.0,25.3,86.9,1000.8,313.1,0.7,0.9,333.1,0.00,23.0,25.7,"04:50:32",1
"17/08/05","05:10",0.0,25.0,87.8,1000.3,293.3,0.3,0.8,303.6,0.00,22.9,25.5,"05:06:56",1
"17/08/05","05:20",0.0,24.9,88.6,1000.8,324.2,0.5,0.8,328.4,0.00,22.9,25.3,"05:10:08",1
"17/08/05","05:30",0.0,24.8,89.3,1000.5,292.3,0.5,0.9,321.0,0.00,23.0,25.4,"05:22:32",1
"17/08/05","05:40",0.0,24.8,89.9,1000.5,339.0,0.7,1.2,337.5,0.00,23.1,25.6,"05:32:24",1
"17/08/05","05:50",0.0,24.9,90.3,1000.5,332.8,0.7,1.3,328.3,0.00,23.2,25.5,"05:45:52",1
"17/08/05","06:00",0.0,25.1,90.2,1000.5,310.2,0.7,1.4,339.3,0.00,23.4,25.5,"05:57:36",1
"17/08/05","06:10",0.0,25.4,89.7,1000.5,308.2,1.0,2.0,329.6,0.00,23.6,25.5,"06:07:20",1
"17/08/05","06:20",0.0,25.7,89.5,1000.5,345.0,0.8,1.6,347.4,0.00,23.9,25.5,"06:14:00",1
"17/08/05","06:30",0.0,25.9,89.3,1000.5,335.3,0.8,1.1,342.8,0.01,24.0,25.7,"06:25:04",1
"17/08/05","06:40",0.0,26.4,88.7,1000.5,334.7,1.0,1.6,342.4,0.03,24.4,25.6,"06:32:00",1
"17/08/05","06:50",0.0,27.6,85.3,1000.5,357.1,0.2,1.1,1.1,0.06,24.9,25.5,"06:48:56",1
"17/08/05","07:00",0.0,27.9,83.2,1001.0,98.9,0.8,2.0,142.4,0.03,24.8,25.6,"06:52:00",1
"17/08/05","07:10",0.0,27.8,82.7,1001.0,93.7,0.7,2.5,145.5,0.00,24.6,25.7,"07:03:28",1
"17/08/05","07:20",0.0,27.7,83.2,1001.0,106.5,0.7,2.2,65.6,0.00,24.6,25.5,"07:14:16",1
"17/08/05","07:30",0.0,27.7,83.0,1001.0,109.7,0.6,1.9,87.1,0.01,24.6,25.7,"07:23:28",1
"17/08/05","07:40",0.0,27.9,82.4,1001.0,84.8,1.0,2.7,78.9,0.02,24.7,25.7,"07:31:36",1
"17/08/05","07:50",0.0,28.0,82.3,1001.2,96.2,0.6,1.3,82.5,0.03,24.7,25.6,"07:40:24",1
"17/08/05","08:00",0.0,28.3,81.3,1001.2,111.4,0.7,2.0,133.1,0.06,24.8,25.7,"07:58:32",1
"17/08/05","08:10",0.0,28.5,80.3,1001.2,86.5,1.1,2.9,86.4,0.05,24.8,25.6,"08:06:48",1
"17/08/05","08:20",0.0,29.4,77.9,1000.8,94.4,1.1,2.6,90.9,0.16,25.2,25.7,"08:10:56",1
"17/08/05","08:30",0.0,29.6,77.7,1000.3,106.4,0.8,2.1,69.9,0.13,25.3,25.7,"08:22:00",1
"17/08/05","08:40",0.0,29.6,76.7,1000.5,87.8,0.8,1.9,90.8,0.10,25.1,26.0,"08:35:28",1
"17/08/05","08:50",0.0,29.3,77.1,1000.5,89.9,1.0,3.9,118.0,0.05,24.9,26.2,"08:42:16",1
"17/08/05","09:00",0.0,29.2,77.3,1000.5,107.8,0.7,2.5,166.9,0.04,24.9,26.2,"08:55:20",1
"17/08/05","09:10",0.0,29.3,77.0,1000.3,89.6,0.8,1.4,55.3,0.06,24.9,26.1,"09:02:56",1
"17/08/05","09:20",0.0,29.5,76.0,1000.5,86.1,1.0,2.0,95.0,0.08,24.9,26.0,"09:19:52",1
"17/08/05","09:30",0.0,29.7,77.0,1000.3,81.3,0.6,1.6,12.0,0.08,25.3,26.2,"09:28:24",1
"17/08/05","09:40",0.0,30.5,73.8,1000.3,120.5,0.7,2.1,114.0,0.18,25.3,26.4,"09:36:48",1
"17/08/05","09:50",0.0,30.4,73.0,1000.8,102.9,1.0,2.2,78.7,0.15,25.1,26.3,"09:45:36",1
"17/08/05","10:00",0.0,30.8,73.3,1001.0,79.7,0.6,1.4,357.7,0.13,25.5,26.2,"09:50:48",1
"17/08/05","10:10",0.0,30.9,73.5,1001.2,26.4,0.6,1.3,5.7,0.14,25.6,26.3,"10:01:12",1
"17/08/05","10:20",0.0,31.7,71.0,1001.2,93.6,0.5,1.3,133.2,0.21,25.8,26.5,"10:10:48",1
"17/08/05","10:30",0.0,32.3,68.8,1001.5,140.8,1.0,2.4,178.7,0.31,25.9,26.7,"10:27:04",1
"17/08/05","10:40",0.0,31.6,69.1,1001.9,147.8,0.6,1.7,116.5,0.14,25.3,26.8,"10:39:20",1
"17/08/05","10:50",0.0,31.3,71.3,1001.5,89.3,0.6,1.1,128.8,0.12,25.5,26.8,"10:42:00",1
"17/08/05","11:00",0.0,31.5,71.0,1001.2,31.5,0.6,1.1,332.5,0.13,25.6,26.9,"10:50:08",1
"17/08/05","11:10",0.0,32.7,67.2,1001.5,32.8,1.0,2.4,5.4,0.37,25.9,26.9,"11:07:44",1
"17/08/05","11:20",0.0,33.8,65.0,1001.5,30.3,1.0,2.1,352.9,0.50,26.3,27.4,"11:16:48",1
"17/08/05","11:30",0.0,33.8,64.5,1001.9,68.7,1.0,3.1,41.2,0.47,26.2,27.5,"11:26:40",1
"17/08/05","11:40",0.0,34.7,60.3,1002.2,56.0,1.2,2.5,20.8,0.66,25.9,27.8,"11:30:02",1
"17/08/05","11:50",0.0,33.2,63.7,1002.2,68.0,1.2,2.2,0.7,0.27,25.4,28.0,"11:40:56",1
"17/08/05","12:00",0.0,32.9,67.1,1001.9,73.5,1.1,2.6,56.7,0.21,26.0,28.1,"11:57:52",1
"17/08/05","12:10",0.0,33.5,62.6,1001.5,96.5,1.1,2.6,27.1,0.36,25.4,28.1,"12:02:08",1
"17/08/05","12:20",0.0,33.3,63.9,1001.2,40.6,1.3,3.1,23.6,0.27,25.6,28.3,"12:16:32",1
"17/08/05","12:30",0.0,32.7,65.4,1001.2,80.3,1.3,3.2,4.5,0.19,25.4,28.3,"12:28:40",1
"17/08/05","12:40",0.0,32.7,64.3,1000.8,56.8,1.1,2.9,45.2,0.19,25.1,28.3,"12:32:00",1
"17/08/05","12:50",0.0,32.4,66.2,1000.3,35.2,1.0,2.2,1.7,0.11,25.3,28.1,"12:47:52",1
"17/08/05","13:00",0.0,32.4,65.5,1000.3,81.3,0.7,2.2,85.4,0.09,25.1,28.1,"12:55:12",1
"17/08/05","13:10",0.0,32.5,65.7,1000.0,87.2,0.8,2.0,25.6,0.07,25.3,28.1,"13:06:40",1
"17/08/05","13:20",0.0,32.2,66.1,999.8,119.6,0.7,2.2,133.2,0.03,25.1,28.2,"13:16:32",1
"17/08/05","13:30",0.0,31.9,68.4,999.6,10.5,0.7,1.8,357.9,0.01,25.4,27.9,"13:26:56",1
"17/08/05","13:40",0.0,31.5,68.9,999.3,9.1,1.2,3.9,354.8,0.00,25.1,27.6,"13:39:36",1
"17/08/05","13:50",0.0,30.9,71.6,998.9,334.2,1.1,2.5,348.4,0.00,25.2,27.9,"13:48:08",1
"17/08/05","14:00",0.0,30.5,75.4,998.6,287.2,0.7,1.8,346.7,0.01,25.7,27.9,"13:50:08",1
"17/08/05","14:10",0.0,29.7,76.9,998.2,325.7,1.7,4.5,317.8,0.05,25.3,27.8,"14:07:44",1
"17/08/05","14:20",0.0,29.9,78.6,998.2,357.4,1.7,3.4,9.6,0.12,25.8,27.8,"14:15:44",1
"17/08/05","14:30",0.0,30.0,78.3,998.2,334.3,1.5,3.2,338.8,0.12,25.8,27.8,"14:20:40",1
"17/08/05","14:40",0.0,29.8,79.3,998.4,254.9,0.6,3.6,1.3,0.03,25.9,27.7,"14:30:08",1
"17/08/05","14:50",0.0,28.9,82.6,997.9,10.5,1.0,1.8,25.2,0.02,25.7,27.4,"14:42:34",1
"17/08/05","15:00",0.0,28.2,87.4,998.2,2.6,1.1,2.6,349.3,0.07,25.9,27.6,"14:54:58",1
"17/08/05","15:10",0.0,28.1,88.3,997.9,350.6,1.6,3.3,11.5,0.15,26.0,27.5,"15:00:32",1
"17/08/05","15:20",0.0,28.4,88.5,997.9,329.9,2.0,3.9,338.2,0.13,26.4,27.3,"15:13:36",1
"17/08/05","15:30",0.0,29.2,86.6,997.7,307.7,0.5,2.2,349.4,0.21,26.8,27.4,"15:29:52",1
"17/08/05","15:40",0.0,30.0,86.6,997.7,328.6,1.1,2.2,338.0,0.29,27.6,27.5,"15:34:40",1
"17/08/05","15:50",0.0,31.2,82.7,997.2,320.6,1.3,2.7,347.0,0.37,27.9,27.5,"15:43:44",1
"17/08/05","16:00",0.0,30.8,79.2,997.4,332.9,1.2,3.9,335.4,0.23,26.8,27.8,"15:59:52",1
"17/08/05","16:10",0.0,31.2,80.2,997.9,337.5,1.5,2.7,334.4,0.28,27.4,27.7,"16:01:28",1
"17/08/05","16:20",0.0,30.9,78.5,998.4,327.7,1.1,2.1,325.5,0.18,26.8,27.8,"16:17:36",1
"17/08/05","16:30",0.0,30.8,81.1,997.9,315.7,0.6,1.6,319.7,0.12,27.2,27.8,"16:22:32",1
"17/08/05","16:40",0.0,31.1,80.0,997.9,296.9,0.3,1.7,344.0,0.08,27.3,27.8,"16:32:00",1
"17/08/05","16:50",0.0,30.8,79.7,997.7,312.1,0.8,1.9,348.8,0.05,26.9,27.9,"16:47:52",1
"17/08/05","17:00",0.0,30.7,80.6,997.4,304.6,0.5,1.6,359.2,0.04,27.0,27.7,"16:57:36",1
"17/08/05","17:10",0.0,30.7,81.5,997.7,306.9,0.5,1.0,230.9,0.04,27.2,27.8,"17:06:48",1
"17/08/05","17:20",0.0,30.4,81.6,997.7,262.9,0.5,1.2,238.9,0.03,26.9,27.7,"17:10:56",1
"17/08/05","17:30",0.0,30.3,82.2,997.4,292.6,0.2,1.2,340.6,0.02,27.0,27.6,"17:27:20",1
"17/08/05","17:40",0.0,29.7,81.2,997.4,193.5,1.3,3.7,189.2,0.00,26.2,27.7,"17:39:22",1
"17/08/05","17:50",0.0,28.1,85.9,998.2,200.6,2.3,5.0,209.0,0.00,25.6,27.9,"17:42:56",1
"17/08/05","18:00",0.0,27.2,86.1,998.9,195.1,1.6,3.6,153.7,0.03,24.7,27.4,"17:57:22",1
"17/08/05","18:10",0.0,26.7,88.6,998.4,206.0,1.1,2.7,177.6,0.03,24.7,27.2,"18:00:34",1
"17/08/05","18:20",0.0,26.5,89.5,998.4,328.4,2.0,4.4,332.0,0.06,24.7,26.9,"18:11:48",1
"17/08/05","18:30",0.0,26.3,90.0,998.9,310.1,1.3,2.2,320.7,0.05,24.6,26.8,"18:21:24",1
"17/08/05","18:40",0.0,26.2,90.4,998.9,340.3,1.2,2.1,355.9,0.03,24.5,26.9,"18:32:18",1
"17/08/05","18:50",0.0,26.1,90.6,999.1,338.8,1.2,2.2,347.9,0.02,24.5,26.7,"18:45:10",1
"17/08/05","19:00",0.0,26.2,90.8,999.3,228.4,0.6,1.8,314.5,0.01,24.6,26.7,"18:51:20",1
"17/08/05","19:10",0.0,26.3,91.0,998.9,261.4,0.5,1.2,231.3,0.00,24.8,26.9,"19:00:32",1
"17/08/05","19:20",0.0,26.2,91.3,999.1,282.7,0.5,1.3,242.1,0.00,24.7,26.7,"19:17:06",1
"17/08/05","19:30",0.0,26.3,91.4,999.3,283.5,0.6,1.2,340.6,0.00,24.8,26.8,"19:22:42",1
"17/08/05","19:40",0.2,26.2,91.6,999.3,255.8,0.6,1.7,240.8,0.00,24.8,26.7,"19:36:16",1
"17/08/05","19:50",0.0,26.2,91.8,999.3,262.4,0.6,1.8,226.0,0.00,24.8,26.8,"19:49:52",1
"17/08/05","20:00",0.0,26.1,91.8,999.1,283.5,0.7,1.7,284.7,0.00,24.7,26.8,"19:59:52",1
"17/08/05","20:10",0.0,26.0,91.9,999.3,269.8,0.3,1.3,315.6,0.00,24.6,26.8,"20:00:16",1
"17/08/05","20:20",0.0,25.9,92.2,999.6,261.4,0.6,1.2,239.6,0.00,24.6,26.7,"20:18:40",1
"17/08/05","20:30",0.0,25.9,92.3,999.6,270.1,0.5,1.2,285.3,0.00,24.6,26.7,"20:20:08",1
"17/08/05","20:40",0.0,25.9,92.7,999.3,350.1,0.6,1.1,339.3,0.00,24.7,26.5,"20:33:12",1
"17/08/05","20:50",0.0,25.9,92.8,999.6,275.3,0.5,0.8,298.7,0.00,24.7,26.7,"20:40:40",1
"17/08/05","21:00",0.0,25.9,93.0,999.8,319.3,0.6,0.9,340.4,0.00,24.7,26.4,"20:51:52",1
"17/08/05","21:10",0.0,25.8,93.0,999.8,259.3,0.5,0.9,234.7,0.00,24.6,26.7,"21:05:12",1
"17/08/05","21:20",0.0,25.8,93.2,999.6,305.1,0.3,0.9,326.8,0.00,24.7,26.5,"21:10:56",1
"17/08/05","21:30",0.0,25.8,93.4,999.8,292.6,0.3,0.8,318.8,0.00,24.7,26.6,"21:20:08",1
"17/08/05","21:40",0.0,25.9,93.4,999.8,271.0,0.5,0.9,238.1,0.00,24.8,26.7,"21:35:20",1
"17/08/05","21:50",0.0,25.7,93.4,999.8,270.4,0.6,1.2,257.4,0.00,24.6,26.4,"21:44:56",1
"17/08/05","22:00",0.0,25.7,93.5,999.8,275.7,0.3,0.6,299.2,0.00,24.6,26.4,"21:53:52",1
"17/08/05","22:10",0.0,25.8,93.6,999.6,265.8,0.2,1.1,303.5,0.00,24.7,26.6,"22:00:48",1
"17/08/05","22:20",0.0,25.7,93.6,999.6,281.4,0.3,0.9,261.3,0.00,24.6,26.4,"22:11:28",1
"17/08/05","22:30",0.0,25.7,93.7,999.8,279.2,0.5,0.9,300.3,0.00,24.6,26.6,"22:27:52",1
"17/08/05","22:40",0.0,25.6,93.7,999.6,280.8,0.5,0.8,301.3,0.00,24.5,26.3,"22:32:56",1
"17/08/05","22:50",0.0,25.5,93.7,999.1,283.3,0.6,1.0,328.9,0.00,24.4,26.4,"22:47:20",1
"17/08/05","23:00",0.0,25.4,93.8,999.6,300.0,0.5,1.0,310.3,0.00,24.4,26.2,"22:52:56",1
"17/08/05","23:10",0.0,25.3,93.9,999.1,303.2,0.6,0.9,345.3,0.00,24.3,26.2,"23:00:48",1
"17/08/05","23:20",0.0,25.2,94.0,999.1,277.7,0.6,1.3,307.3,0.00,24.2,26.3,"23:10:16",1
"17/08/05","23:30",0.0,25.2,94.1,999.6,266.3,0.6,1.1,265.4,0.00,24.2,26.2,"23:23:52",1
"17/08/05","23:40",0.0,25.2,94.2,999.3,268.0,0.3,0.9,299.1,0.00,24.2,26.2,"23:34:32",1
"17/08/05","23:50",0.0,25.1,94.2,999.3,285.4,0.5,1.0,251.3,0.00,24.1,26.2,"23:43:12",1
"17/08/05","24:00",0.0,25.2,94.4,999.1,338.3,0.6,1.8,348.5,0.00,24.3,26.2,"23:54:08",1
